Regional Weather Roundup
Issued by NWS

Home | Current Version | Previous Version | Graphics & Text | Print | Product List | Glossary Off
Versions: 1 2 3 4 5 6 7 8 9 10 11 12 13 14 15 16 17 18 19 20 21 22 23 24 25 26 27 28 29 30 31 32 33 34 35 36 37 38 39 40 41 42 43 44 45 46 47 48 49 50

012
ASUS43 KMKX 281511
RWRWI

WISCONSIN REGIONAL WEATHER ROUNDUP
NATIONAL WEATHER SERVICE MILWAUKEE/SULLIVAN WI
1000 AM CDT FRI JUL 28 2017

NOTE: "FAIR" INDICATES FEW OR NO CLOUDS BELOW 12,000 FEET WITH NO
SIGNIFICANT WEATHER AND/OR OBSTRUCTIONS TO VISIBILITY.

WIZ001-002-006>008-014>016-023>028-281600-
NORTHWEST WISCONSIN

CITY           SKY/WX    TMP DP  RH WIND       PRES   REMARKS
SUPERIOR ARPT  NOT AVBL
ASHLAND        SUNNY     71  61  70 S5        30.15S
HAYWARD        SUNNY     72  52  49 E8        30.15S
SIREN          SUNNY     73  60  63 CALM      30.14R
CUMBERLAND     SUNNY     70  59  68 E3        30.14S
RICE LAKE      SUNNY     73  59  61 E5        30.15S
CHETEK         SUNNY     71  59  64 E7        30.13S
LADYSMITH      SUNNY     72  53  49 E6        30.16S
EAU CLAIRE     SUNNY     73  61  65 E7        30.11S
MENOMONIE      SUNNY     74  62  65 NE7       30.11F
NEW RICHMOND   SUNNY     74  61  64 E3        30.12S
OSCEOLA        SUNNY     74  62  64 NE3       30.15S
$$

WIZ003>005-009-010-017-018-281600-
NORTH CENTRAL WISCONSIN

CITY           SKY/WX    TMP DP  RH WIND       PRES   REMARKS
MANITOWISH WTR SUNNY     70  55  57 CALM      30.16S
ARBOR VITAE    SUNNY     72  55  55 NE7       30.15S
WOODRUFF       SUNNY     72  55  55 NE7       30.15S
RHINELANDER    SUNNY     70  56  61 NE6       30.15S
EAGLE RIVER    SUNNY     70  52  51 E5        30.15S
LAND O LAKES   SUNNY     71  51  49 SE5       30.17S
PHILLIPS       SUNNY     69  56  62 CALM      30.15S
TOMAHAWK         N/A     69  54  58 CALM      30.15S
MEDFORD        SUNNY     69  53  57 N6        30.14S
MERRILL        SUNNY     72  55  56 NE3       30.14R
$$

WIZ029-030-035-036-043>047-281600-
CENTRAL WISCONSIN

CITY           SKY/WX    TMP DP  RH WIND       PRES   REMARKS
WAUSAU         SUNNY     70  55  59 NE7       30.11R
MOSINEE        SUNNY     70  57  64 NE10      30.13R
MARSHFIELD     SUNNY     70  54  56 NE8       30.12R
STEVENS POINT  SUNNY     69  54  57 N9        30.11S
WAUPACA        SUNNY     72  57  60 N8        30.10R
WAUTOMA        SUNNY     72  56  57 N9        30.09S
WISC RAPIDS    SUNNY     73  54  51 NE10      30.12S
CAMP DOUGLAS   NOT AVBL
$$

WIZ011>013-019>022-031-037>040-048>050-281600-
NORTHEAST WISCONSIN

CITY           SKY/WX    TMP DP  RH WIND       PRES   REMARKS
ANTIGO         SUNNY     69  56  63 NE10G16   30.13R
SHAWANO        SUNNY     72  58  62 NE10      30.09S
OCONTO         SUNNY     68  58  70 N3        30.08S
STURGEON BAY     N/A     69  61  75 VRB6      30.08S
GREEN BAY      SUNNY     70  63  78 NE8       30.08R
MANITOWOC      MOSUNNY   69  60  73 N8        30.07S
APPLETON       SUNNY     66  54  63 N9        30.07S
CLINTONVILLE   SUNNY    N/A N/A N/A NE7       30.09R
OSHKOSH        SUNNY     68  57  68 NE10      30.07S
$$

WIZ032>034-041-042-053>061-281600-
SOUTHWEST WISCONSIN

CITY           SKY/WX    TMP DP  RH WIND       PRES   REMARKS
LA CROSSE      SUNNY     74  62  66 E5        30.09S
SPARTA         SUNNY     72  56  58 E6        30.11S
VIROQUA        SUNNY     70  61  73 NE6       30.10S
BOSCOBEL       SUNNY     74  59  59 NE6       30.07S
PRAIRIE DU CHI SUNNY     73  59  61 E5        30.07R
PLATTEVILLE    SUNNY     72  63  72 NE12      30.07S
$$

WIZ056-057-062-063-064-067-068-281600-
SOUTH CENTRAL WISCONSIN

CITY           SKY/WX    TMP DP  RH WIND       PRES   REMARKS
REEDSBURG      SUNNY     69  56  63 NE9       30.09S
BARABOO/DELLS  SUNNY     69  53  57 N5        30.09S
LONE ROCK      SUNNY     73  58  59 NE13      30.07S
MINERAL POINT  SUNNY     72  61  68 N12       30.08R
MADISON        MOSUNNY   71  57  61 NE14      30.06S
MIDDLETON      SUNNY     72  57  60 NE7G16    30.07F
WATERTOWN      SUNNY     70  60  69 N12       30.06S
MONROE         SUNNY     70  55  60 NE13      30.06R
JANESVILLE     MOSUNNY   73  55  53 NE12G17   30.04R
$$

WIZ051-052-058>065-066-070>072-281600-
SOUTHEAST WISCONSIN

CITY           SKY/WX    TMP DP  RH WIND       PRES   REMARKS
MILWAUKEE      PTSUNNY   70  64  81 N15G22    30.05R
WAUKESHA       SUNNY     70  57  64 NE9       30.06S
MILWAUKEE/TIMM PTSUNNY   70  57  64 E8        30.06R
RACINE         CLOUDY    71  66  84 N15       30.05R
KENOSHA        PTSUNNY   72  62  71 NE13      30.03R
FOND DU LAC    SUNNY     69  57  65 NE10      30.07S
SHEBOYGAN      PTSUNNY   69  62  78 N8        30.06R
WEST BEND      SUNNY     68  59  73 NE9       30.06R
JUNEAU         MOSUNNY   68  58  69 N10       30.08R
$$

LSZ147-162-281600-
LAKE SUPERIOR

STATION/POSITION TIME  TEMP    WIND        PRES    WAVE
                       AIR SEA DIR/SP/G            HT/PER
                 (UTC) (F)     (DEG/KT/KT) (MB)    (FT/S)
W MID LAKE BUOY  1350   57 54  280/  2/  4 1020.7R   0
DEVILS ISLAND    1500   63     330/  3/  4 1020.9R
SAXON HARBOR     1430   66     360/  1/  2 1020.7R
$$

LMZ867-665-643>646-281600-
LAKE MICHIGAN

STATION/POSITION TIME  TEMP    WIND        PRES    WAVE
                       AIR SEA DIR/SP/G            HT/PER
                 (UTC) (F)     (DEG/KT/KT) (MB)    (FT/S)
CHAMBERS ISLAND  1440   66      20/ 12/ 14 1017.9S
S GREEN BAY BUOY 1500   67 71   30/ 12/ 14 1018.2
N MID LAKE BUOY  1450   66 66   60/ 12/ 14 1018.7F   2/ 3
NORTHPORT PIER   1440   68      60/  9/ 12 1018.3S
KEWAUNEE LAKESHO 1442   68      30/  6/ 11 1017.4R
SHEBOYGAN LAKESH 1500   65      10/ 16/ 19 1017.7R
PORT WASHINGTON  1440   70      50/ 11/ 14 1018.6R
MILWAUKEE LAKESH 1450   67      20/ 13/ 16   N/A
S MID LAKE BUOY  1350   69 72   40/ 12/ 14 1015.8R   3/ 5
KENOSHA   LAKESH 1500   68      20/ 17/ 18 1016.6
$$

TC  - TEMPERATURE IN CELSIUS
VSB - VISIBILITY IN STATUTE MILES
WCI - WIND CHILL INDEX
HX  - HEAT INDEX





USA.gov is the U.S. government's official web portal to all federal, state and local government web resources and services.